Tracking 29790 objects as of 12-Oct-2024
HD Live streaming from Space Station
objects crossing your sky now

IPERDRONE.0

Track IPERDRONE.0 now!
10-day predictions


NORAD ID: 60520
Int'l Code: 2024-149BE
Perigee: 504.6 km
Apogee: 512.5 km
Inclination: 97.4 °
Period: 94.6 minutes
Semi major axis: 6879 km
RCS: Unknown
Launch date: August 16, 2024
Source: Italy (IT)
Launch site: AIR FORCE WESTERN TEST RANGE (AFWTR)
Your satellite tracking list
Your tracking list is empty




NASA's NSSDC Master Catalog

Two Line Element Set (TLE):
1 60520U 24149BE  24285.72985961  .00049092  00000-0  21737-2 0  9997
2 60520  97.4356   0.5152 0005775 310.9753  49.0983 15.21463532  8490
Source of the keplerian elements: AFSPC